Terminal Aerodrome Forecast
Issued by NWS

Home | Current Version | Previous Version | Text Only | Print | Product List | Glossary On
Versions: 1 2 3 4 5 6 7 8 9 10 11 12 13 14 15 16 17 18 19 20 21 22 23 24 25 26 27 28 29 30 31 32 33 34 35 36 37 38 39 40 41 42 43 44 45 46 47 48
000
FTAK31 PANC 050535
TAFASN
TAF
PASN 050535Z 0506/0606 36012KT P6SM VCFG OVC007
     FM051000 33012KT 4SM BR OVC003
     FM051800 33013KT 2SM BR OVC003=

USA.gov is the U.S. government's official web portal to all federal, state and local government web resources and services.